Location: Crescent
(42.8242°N, 73.7329°W)
Time: 14:38:52
(UTC+00:00)

Courier 1B - Pass Details

Date: 23 February 2026
Orbit: 962 x 1208 km, 28.3° (Epoch: 7 March)

Event Time Altitude Azimuth Distance (km) Brightness Sun altitude
Rises 00:24:35 0° 243° (WSW) 3,816 11.5 -20.7°
Reaches altitude 10° 00:27:44 10° 231° (SW) 2,904 10.6 -21.2°
Maximum altitude 00:33:23 25° 178° (S) 2,057 9.1 -22.3°
Enters shadow 00:35:47 21° 150° (SSE) 2,268 9.1 -22.7°
